This demonstration page uses our WeatherBlox Daily Observations layout. Learn more.

Left ArrowRight Arrow

Hourly Observations for April 25, 2021

Temp ( °F °C ) Dew Point ( °F °C ) Humidity (%) Winds ( mph kmh ) Pressure ( in mb ) Visibility ( mi km ) Precip ( " mm )
12:53 am 00:53 Cloudy 57 13.9 41 5 55 55 undefined N/A 29.81 1010 10 16 0.00 0.00
1:53 am 01:53 Mostly Cloudy 56 13.3 39 3.9 53 53 S 14 22 29.80 1009 10 16 0.00 0.00
2:53 am 02:53 Cloudy 56 13.3 38 3.3 51 51 S 13 20 29.78 1009 10 16 0.00 0.00
3:53 am 03:53 Cloudy 55 12.8 38 3.3 53 53 S 13 20 29.78 1008 10 16 0.00 0.00
4:53 am 04:53 Cloudy 55 12.8 38 3.3 53 53 SSW 9 15 29.78 1008 10 16 0.00 0.00
5:53 am 05:53 Cloudy 54 12.2 40 4.4 59 59 S 7 11 29.78 1008 10 16 0.00 0.00
6:53 am 06:53 Cloudy 53 11.7 39 3.9 59 59 S 13 20 29.78 1009 10 16 0.00 0.00
7:53 am 07:53 Cloudy 53 11.7 40 4.4 61 61 S 14 22 29.78 1009 10 16 0.00 0.00
8:53 am 08:53 Cloudy with Light Rain 53 11.7 41 5 64 64 S 14 22 29.80 1009 10 16 0.00 0.00
9:53 am 09:53 Cloudy 55 12.8 38 3.3 53 53 SSE 20 31 29.79 1009 10 16 0.00 0.00
10:53 am 10:53 Cloudy 55 12.8 40 4.4 57 57 S 22 35 29.79 1009 10 16 0.00 0.00
11:53 am 11:53 Cloudy with Light Rain 50 10 43 6.1 77 77 WSW 17 28 29.84 1010 7 11 0.00 0.00
11:58 am 11:58 Cloudy with Heavy Rain 47 8.3 41 5 80 80 WSW 13 20 29.86 1011 3 4 0.02 0.51
12:04 pm 12:04 Cloudy with Heavy Rain 46 7.8 42 5.6 86 86 SW 10 17 29.86 1011 1 2 0.08 2.03
12:11 pm 12:11 Cloudy with Rain 46 7.8 43 6.1 89 89 SSW 8 13 29.85 1011 2 3 0.12 3.05
12:14 pm 12:14 Cloudy with Rain 46 7.8 43 6.1 89 89 SSW 9 15 29.86 1011 2 3 0.13 3.30
12:24 pm 12:24 Cloudy with Rain 47 8.3 43 6.1 86 86 SSW 9 15 29.85 1011 3 5 0.15 3.81
12:43 pm 12:43 Cloudy with Rain 46 7.8 44 6.7 93 93 SSW 3 6 29.85 1011 2 3 0.21 5.33
12:53 pm 12:53 Cloudy with Light Rain 47 8.3 44 6.7 90 90 WSW 3 6 29.83 1010 3 5 0.24 6.10
1:05 pm 13:05 Cloudy with Rain 47 8.3 44 6.7 90 90 Calm 29.84 1011 2 3 0.05 1.27
1:14 pm 13:14 Cloudy with Rain 47 8.3 44 6.7 90 90 SE 3 6 29.86 1011 2 3 0.08 2.03
1:17 pm 13:17 Cloudy with Rain 47 8.3 44 6.7 90 90 SE 6 9 29.85 1011 2 3 0.08 2.03
1:28 pm 13:28 Cloudy with Rain 47 8.3 44 6.7 90 90 NNW 6 9 29.84 1011 2 3 0.13 3.30
1:39 pm 13:39 Cloudy with Light Rain 48 8.9 45 7.2 89 89 Calm 29.84 1010 5 8 0.14 3.56
1:53 pm 13:53 Mostly Cloudy 50 10 45 7.2 83 83 ESE 3 6 29.83 1010 10 16 0.15 3.81
2:17 pm 14:17 Mostly Cloudy 50 10 47 8.3 89 89 E 9 15 29.84 1010 10 16 0.00 0.00
2:26 pm 14:26 Mostly Cloudy 50 10 46 7.8 86 86 ENE 9 15 29.83 1010 10 16 0.00 0.00
2:51 pm 14:51 Cloudy 50 10 46 8 88 88 ENE 7 11 29.82 1010 10 16 0.00 0.00
2:53 pm 14:53 Cloudy 50 10 46 7.8 86 86 ENE 10 17 29.80 1009 10 16 0.00 0.00
3:19 pm 15:19 Cloudy 49 9.4 45 7.2 86 86 ENE 12 19 29.80 1009 10 16 0.00 0.00
3:37 pm 15:37 Cloudy 49 9.4 44 6.7 83 83 NNE 15 24 29.81 1009 10 16 0.00 0.00
3:53 pm 15:53 Cloudy 48 8.9 44 6.7 86 86 ENE 15 24 29.78 1008 10 16 0.00 0.00
4:07 pm 16:07 Cloudy 48 8.9 43 6.1 83 83 E 13 20 29.78 1008 10 16 0.00 0.00
4:53 pm 16:53 Partly Cloudy 53 11.7 44 6.7 72 72 E 8 13 29.79 1009 10 16 0.00 0.00
5:53 pm 17:53 Cloudy with Light Rain 53 11.7 44 6.7 72 72 NNE 13 20 29.79 1009 9 14 0.00 0.00
6:53 pm 18:53 Sunny 52 11.1 42 5.6 69 69 N 12 19 29.78 1009 10 16 0.00 0.00
7:53 pm 19:53 Cloudy with Light Rain 50 10 43 6.1 77 77 NNE 8 13 29.80 1009 10 16 0.00 0.00
8:53 pm 20:53 Clear 47 8.3 43 6.1 86 86 Calm 29.82 1010 10 16 0.00 0.00
9:53 pm 21:53 Clear 47 8.3 42 5.6 83 83 N 5 7 29.84 1010 10 16 0.00 0.00
10:53 pm 22:53 Clear 45 7.2 42 5.6 90 90 N 5 7 29.84 1011 10 16 0.00 0.00
11:53 pm 23:53 Clear 43 6.1 41 5 93 93 NNE 5 7 29.85 1011 10 16 0.00 0.00

Powered by AerisWeather